Location: Etzleinsberg
(48.4833°N, 14.0333°E)
Time: 17:54:42
(UTC+00:00)

Daily predictions for brighter satellites

Satellite Brightness Start Highest point End
(mag) Time Altitude Azimuth Time Altitude Azimuth Time Altitude Azimuth
SPOT 3 Rocket 3.7 19:43:19 10° SSE 19:48:26 64° ENE 19:53:36 10° N
Cosmos 2251 Rocket 3.7 19:43:59 10° NNW 19:49:21 86° WSW 19:54:43 10° SSE
ATLAS 2AS CENTAUR R/B 3.6 19:42:27 10° NW 19:49:22 43° NNE 19:55:49 10° ESE
Cosmos 1674 Rocket 4.2 19:45:50 10° SSW 19:50:07 61° WNW 19:54:28 10° N
ARIANE 5 R/B 4.2 19:47:07 10° ESE 19:50:38 23° ENE 19:54:07 10° N
Lacrosse 5 rocket 2.5 19:47:15 10° NW 19:50:48 36° NNE 19:54:31 10° E
Cosmos 1656 Rocket 4.3 19:49:22 10° NW 19:54:40 53° WSW 20:00:00 10° S
Cosmos 1238 Rocket 4.4 19:49:42 10° NNW 19:54:42 56° W 20:00:29 10° S
CZ-4B R/B 1.1 19:52:09 10° N 19:55:03 78° WNW 19:57:55 10° SSW
NOSS 3-4 (A) 4.0 19:48:16 10° NW 19:55:12 80° SW 20:03:05 10° SSE
NOSS 3-4 (C) 4.0 19:48:21 10° NW 19:55:17 81° SW 20:03:09 10° SSE
Cosmos 1553 Rocket 4.4 19:51:37 10° SSW 19:57:57 72° W 20:04:24 10° N
USA 234 3.8 19:54:04 10° E 20:00:28 59° NNE 20:06:53 10° NW
Cosmos 1190 Rocket 4.5 19:56:53 10° NNW 20:02:07 53° ENE 20:07:17 10° SE
GENESIS II 4.3 20:00:47 10° NW 20:04:50 84° NE 20:08:51 10° SE
Meteor 2-10 Rocket 3.5 20:02:14 10° NNW 20:07:22 82° W 20:12:21 10° S
Okean 1 Rocket 4.0 20:03:32 10° NNW 20:07:53 49° W 20:12:11 10° SSW
Cosmos 407 Rocket 3.5 20:04:11 10° NNW 20:09:25 84° ENE 20:14:34 10° SSE
APEX 4.2 20:04:44 10° SSW 20:10:42 84° WNW 20:15:41 10° NNE
SL-14 R/B 4.2 20:07:21 10° SSW 20:11:06 49° WNW 20:14:55 10° N
S3M 4.1 20:05:22 10° S 20:11:36 87° W 20:17:48 10° N
Cosmos 1455 Rocket 3.1 20:08:47 10° N 20:13:09 70° E 20:17:28 10° SSE
USA 245 3.8 20:08:46 10° SSE 20:13:59 83° WSW 20:18:12 10° NNW
SPOT 5 2.7 20:12:53 10° SSE 20:17:24 72° ENE 20:21:46 10° N
Cosmos 2056 Rocket 4.0 20:13:25 10° S 20:18:25 41° ESE 20:23:29 10° NE
Meteor 2-5 Rocket 3.8 20:13:08 10° S 20:18:34 59° E 20:24:01 10° NNE
Cosmos 1271 Rocket 3.6 20:19:18 10° N 20:23:03 38° ENE 20:26:12 13° SE
Cosmos 1300 3.9 20:20:58 10° NNW 20:24:31 39° W 20:28:03 10° SSW
Cosmos 1025 Rocket 3.0 20:21:01 10° S 20:25:13 64° E 20:29:29 10° NNE
Cosmos 676 Rocket 4.4 20:23:21 10° NNW 20:28:36 54° ENE 20:33:07 13° SE
ERS-1 Rocket 3.0 20:24:37 11° SSE 20:29:30 82° ENE 20:34:34 10° NNW
USA 32 4.2 20:24:31 10° S 20:29:39 59° E 20:34:47 10° NNE
Cosmos 1420 Rocket 4.5 20:25:52 10° S 20:30:45 42° ESE 20:35:43 10° NE
Cosmos 1607 4.3 20:25:45 10° S 20:31:35 44° ESE 20:37:26 10° NE
Cosmos 1140 Rocket 3.9 20:27:50 10° NNW 20:32:58 60° WSW 20:37:57 11° S
Cosmos 1943 4.2 20:32:39 10° SW 20:38:10 52° NW 20:43:42 10° NNE
Cosmos 1536 Rocket 4.5 20:36:40 15° SE 20:39:36 32° E 20:43:27 10° NNE
CZ-2C R/B 3.7 20:36:29 10° NNE 20:41:07 67° ESE 20:45:38 10° S
Lacrosse 5 2.4 20:38:28 10° NW 20:43:32 59° NNE 20:48:34 10° ESE
Cosmos 2184 Rocket 4.4 20:38:12 10° N 20:44:11 50° ENE 20:49:03 16° SE
Cosmos 1975 Rocket 3.5 20:41:31 10° SSW 20:45:58 66° WNW 20:50:24 10° N
Helios 1A Rocket 3.4 20:43:49 12° S 20:47:31 56° W 20:51:33 10° NNW
Cosmos 1954 Rocket 4.0 20:44:50 10° NNW 20:50:10 84° ENE 20:54:15 17° SSE
Resurs 01 Rocket 4.2 20:51:12 10° SW 20:53:46 15° W 20:56:20 10° NW
Lacrosse 4 Rocket 3.9 20:55:01 10° W 20:58:28 25° NW 21:01:54 10° NNE
Tiangong 2.4 20:57:35 10° SW 21:00:10 22° S 21:00:12 22° S
Cosmos 2228 3.8 20:57:52 10° N 21:01:52 39° ENE 21:04:23 20° SE
Cosmos 1544 Rocket 3.7 21:00:02 10° NNW 21:04:20 67° W 21:07:38 17° S
Cosmos 1703 3.8 21:03:35 22° SSE 21:05:37 40° E 21:09:15 10° NNE
Terra 2.2 21:02:52 15° S 21:06:48 58° W 21:11:31 10° NNW
FALCON 9 DEB 3.2 21:04:16 10° WSW 21:07:31 71° NNW 21:10:48 10° ENE
USA 267 3.2 21:01:55 10° NE 21:08:29 82° SE 21:15:04 10° SW
SAR-Lupe-1 4.4 21:05:36 10° NNE 21:09:06 48° E 21:10:55 24° SSE
SL-8 R/B 3.7 21:04:51 10° W 21:09:42 90° SE 21:14:32 10° E
Cosmos 1980 Rocket 4.1 21:07:03 10° N 21:11:30 23° NE 21:15:55 10° E
Cosmos 1455 2.6 21:08:22 10° NNW 21:12:06 56° W 21:14:42 18° S
Meteor 1-24 Rocket 4.1 21:07:27 10° SSW 21:12:40 59° WNW 21:18:00 10° N
Cosmos 1697 Rocket 3.7 21:11:11 10° NNW 21:16:24 37° NE 21:20:59 13° ESE
NOSS 2-1 (C) 4.0 21:13:28 10° NW 21:17:54 89° WSW 21:22:11 20° SE
Cosmos 1371 Rocket 4.5 21:13:42 10° SW 21:18:52 63° WNW 21:24:08 10° NNE
Cosmos 1452 Rocket 3.9 21:17:03 20° SSE 21:20:20 46° ESE 21:25:21 10° NNE
RESURS DK-1 3.6 21:16:37 10° NNW 21:20:25 35° NE 21:23:13 16° ESE
ADEOS Rocket 4.4 21:18:38 12° ESE 21:24:22 37° ENE 21:31:07 10° N
ARIANE 5 R/B 3.4 21:23:37 17° SSW 21:26:48 47° W 21:31:08 10° NNW
NOSS 2-1 (D) 4.0 21:23:48 10° NW 21:28:17 77° SW 21:32:17 22° SSE
ASTEX 1 3.8 21:24:24 10° NNE 21:29:19 52° E 21:32:06 24° SSE
Lacrosse 5 rocket 1.5 21:26:09 10° WNW 21:29:57 54° SW 21:31:47 29° SSE
Cosmos 2084 3.0 21:27:11 10° SW 21:31:01 79° SE 21:34:54 10° NE
Meteor 2-1 Rocket 4.4 21:25:47 10° N 21:31:15 60° ENE 21:34:38 23° SSE
Cosmos 2058 Rocket 4.4 21:33:21 10° N 21:37:12 29° ENE 21:39:28 19° ESE
Cosmos 2074 Rocket 4.2 21:31:14 10° NNW 21:37:29 70° W 21:42:02 19° S
ATLAS 2AS CENTAUR R/B 2.9 21:33:38 10° NW 21:40:37 61° WSW 21:44:51 23° SSE
USA 234 3.3 21:38:51 21° SE 21:43:28 64° SW 21:50:00 10° WNW
GP-B 3.5 21:39:18 10° N 21:43:38 50° E 21:45:40 28° SSE
Cosmos 1656 3.6 21:38:12 10° NNW 21:43:41 79° WSW 21:46:54 26° SSE
Cosmos 1892 Rocket 4.3 21:45:13 27° SE 21:47:00 39° E 21:51:06 10° NNE
Cosmos 1833 Rocket 3.1 21:44:37 25° SSE 21:47:25 44° ESE 21:52:43 10° NE
Cosmos 2154 Rocket 4.1 21:50:37 10° NNW 21:56:50 70° W 22:00:52 23° S
Nadezhda 1 Rocket 4.0 21:54:38 20° SSW 21:59:01 82° W 22:05:08 10° N
Cosmos 2082 Rocket 3.5 21:59:43 21° SE 22:01:37 25° ESE 22:06:11 10° NE
Cosmos 1741 Rocket 4.1 21:59:00 10° NNW 22:04:17 68° WSW 22:07:02 29° S
Cosmos 2344 4.3 22:00:53 10° NW 22:09:40 84° NE 22:20:43 14° SE
Cosmos 1606 Rocket 4.2 22:21:28 10° NNW 22:25:35 44° W 22:27:26 27° SSW
Cosmos 968 Rocket 3.7 22:20:29 10° NNW 22:25:39 65° ENE 22:28:29 27° SE
H-2A R/B 3.4 22:21:32 10° NNE 22:25:44 71° ESE 22:27:16 38° S
Lacrosse 5 2.5 22:21:40 10° WNW 22:26:24 39° SW 22:27:56 31° S
COSMOS 2406 3.5 22:25:00 29° S 22:27:43 54° ESE 22:33:20 10° NE
Cosmos 1633 4.4 22:30:47 17° E 22:31:22 18° E 22:33:49 10° NE
Meteor 1-11 4.2 22:30:33 29° S 22:33:34 84° E 22:39:11 10° NNE
SL-8 Rocket 4.0 22:29:47 10° N 22:36:06 87° W 22:39:30 29° S
Cosmos 2369 3.7 22:32:12 10° NNW 22:37:58 81° ENE 22:41:14 27° SSE
SJ 16-02 3.9 22:36:29 10° NNE 22:39:12 16° NE 22:41:52 10° E
Cosmos 2218 Rocket 4.0 22:33:16 10° N 22:39:43 86° E 22:43:17 29° S
Cosmos 2341 Rocket 4.2 22:35:16 10° NNW 22:41:35 68° W 22:45:04 28° S
SL-16 R/B 3.9 22:38:17 10° NNW 22:43:11 29° NE 22:48:03 10° ESE
Cosmos 1408 2.6 22:43:33 45° SW 22:44:25 66° W 22:47:51 10° N
Cosmos 1825 2.3 22:46:54 45° SSE 22:47:45 58° E 22:51:27 10° NNE
ALOS 2 2.9 22:46:37 35° SSW 22:48:12 56° W 22:52:33 10° NNW
Cosmos 2366 rocket 4.0 22:43:01 10° N 22:49:20 83° W 22:52:47 29° S
USA 267 4.2 22:45:01 10° ENE 22:51:18 51° NNW 22:57:34 10° W
Cosmos 1900 4.4 22:46:09 10° NW 22:51:19 72° WSW 22:53:35 33° SSE
Cosmos 1867 4.0 22:46:17 10° NNW 22:51:44 60° NE 22:56:07 15° SE
SL-8 R/B 3.6 22:47:25 10° W 22:52:14 73° SSW 22:57:03 10° ESE
Cosmos 967 Rocket 4.5 22:51:24 22° SSW 22:55:48 85° SE 23:02:19 10° NE
Cosmos 1980 Rocket 2.1 22:50:30 10° NNW 22:56:15 85° WSW 22:59:14 30° SSE
RESURS DK-1 3.5 22:54:46 10° NW 22:58:19 28° WSW 22:59:03 26° SW
Cosmos 1697 Rocket 3.3 22:55:10 10° NW 23:00:27 42° WSW 23:02:42 29° SSW
Cosmos 1812 Rocket 3.9 22:57:34 10° N 23:02:00 59° ENE 23:03:53 32° SE
Cosmos 1992 Rocket 4.5 23:01:48 31° SSE 23:03:49 46° ESE 23:08:49 10° NNE
Cosmos 1892 3.4 23:06:34 31° SW 23:07:50 43° WNW 23:11:27 10° N
ERS-2 2.1 23:04:53 10° N 23:08:28 74° WNW 23:09:26 46° SW
ADEOS Rocket 3.7 23:05:35 27° SSW 23:09:29 57° W 23:16:54 10° NNW
Cosmos 2058 4.5 23:08:17 20° ESE 23:09:48 25° E 23:13:16 10° NNE
USA 276 1.9 23:10:14 45° W 23:10:59 77° NNW 23:13:54 10° ENE
In-Cosmos 22 Rocket 4.3 23:08:21 29° SSW 23:11:20 73° WNW 23:16:53 10° N
Cosmos 2084 Rocket 3.1 23:07:39 10° NW 23:11:34 89° NE 23:13:11 35° SE
Cosmos 2058 Rocket 4.3 23:11:18 10° NNW 23:15:09 31° W 23:16:43 24° SW
Cosmos 1602 Rocket 3.5 23:15:24 40° S 23:16:54 76° E 23:21:14 10° NNE
Cosmos 2181 Rocket 4.3 23:15:18 25° SSW 23:18:55 58° WNW 23:25:02 10° N
Aureole 1 Rocket 4.4 23:12:48 10° NNW 23:19:20 78° ENE 23:25:14 19° SSE
Cosmos 1302 Rocket 4.4 23:21:10 24° SW 23:24:12 60° WNW 23:29:22 10° NNE
Cosmos 2278 3.7 23:18:30 10° NNW 23:24:16 85° WSW 23:27:31 27° SSE
Cosmos 2322 Rocket 3.4 23:20:05 10° NNW 23:25:24 39° NE 23:30:42 10° ESE
SL-19 R/B 4.3 23:26:15 39° SE 23:27:19 62° ENE 23:31:04 10° N
Cosmos 1934 Rocket 4.4 23:24:53 10° N 23:30:50 54° ENE 23:34:59 20° SSE
CRYOSAT 2 4.4 23:29:07 32° SSE 23:31:25 76° E 23:36:20 10° N
Cosmos 1833 Rocket 3.9 23:26:17 10° WSW 23:31:27 37° NW 23:36:39 10° NNE
CZ-2D R/B 4.0 23:31:59 10° NE 23:35:34 18° E 23:38:50 11° SE
Geosat 3.9 23:35:56 27° SSE 23:38:44 83° WSW 23:43:48 10° NNW
Cosmos 1626 Rocket 4.4 23:42:03 26° SW 23:43:55 39° WNW 23:48:00 10° N
Cosmos 2082 Rocket 2.6 23:41:31 21° SW 23:45:17 60° WNW 23:50:57 10° NNE
Cosmos 1821 Rocket 4.1 23:41:22 10° NNW 23:47:35 63° W 23:50:56 28° SSW
ATLAS 5 CENTAUR R/B 1.7 23:51:03 37° SSE 23:51:52 44° ESE 23:55:48 10° NE
Cosmos 1238 4.2 23:52:31 55° SW 23:52:59 66° W 23:56:01 10° N
Cosmos 1825 Rocket 3.5 23:53:55 36° S 23:55:39 83° E 00:00:00 10° N
